owner,sensor,date,latitude,longitude,air_pressure(mBar),qcFlag 
LUMCON,ioos:station:LUMCON:103:1,2010-11-03T14:00:00Z,30.1889,-90.1683,1010.0,1111122 
LUMCON,ioos:station:LUMCON:103:1,2010-11-03T15:00:00Z,30.1889,-90.1683,1010.2,1111122 
LUMCON,ioos:station:LUMCON:103:1,2010-11-03T16:00:00Z,30.1889,-90.1683,1010.4,1111122 
LUMCON,ioos:station:LUMCON:103:1,2010-11-03T17:00:00Z,30.1889,-90.1683,1010.0,1111122 
LUMCON,ioos:station:LUMCON:103:1,2010-11-03T18:00:00Z,30.1889,-90.1683,1009.3,1111122 
LUMCON,ioos:station:LUMCON:103:1,2010-11-03T19:00:00Z,30.1889,-90.1683,1008.3,1111122 
LUMCON,ioos:station:LUMCON:103:1,2010-11-03T20:00:00Z,30.1889,-90.1683,1007.7,1111122 
LUMCON,ioos:station:LUMCON:103:1,2010-11-03T21:00:00Z,30.1889,-90.1683,1007.1,1111122 
LUMCON,ioos:station:LUMCON:103:1,2010-11-03T22:00:00Z,30.1889,-90.1683,1007.2,1111122 
LUMCON,ioos:station:LUMCON:103:1,2010-11-03T23:00:00Z,30.1889,-90.1683,1007.2,1111122 
LUMCON,ioos:station:LUMCON:103:1,2010-11-04T00:00:00Z,30.1889,-90.1683,1007.4,1111122 
LUMCON,ioos:station:LUMCON:103:1,2010-11-04T01:00:00Z,30.1889,-90.1683,1007.9,1111122 
LUMCON,ioos:station:LUMCON:103:1,2010-11-04T02:00:00Z,30.1889,-90.1683,1008.1,1111122 
LUMCON,ioos:station:LUMCON:103:1,2010-11-04T03:00:00Z,30.1889,-90.1683,1008.2,1111122 
LUMCON,ioos:station:LUMCON:103:1,2010-11-04T04:00:00Z,30.1889,-90.1683,1008.4,1111122 
LUMCON,ioos:station:LUMCON:103:1,2010-11-04T05:00:00Z,30.1889,-90.1683,1008.1,1111122 
LUMCON,ioos:station:LUMCON:103:1,2010-11-04T06:00:00Z,30.1889,-90.1683,1007.8,1111122 
LUMCON,ioos:station:LUMCON:103:1,2010-11-04T07:00:00Z,30.1889,-90.1683,1007.7,1111122 
LUMCON,ioos:station:LUMCON:103:1,2010-11-04T14:00:00Z,30.1889,-90.1683,1010.5,1111122 
LUMCON,ioos:station:LUMCON:103:1,2010-11-04T15:00:00Z,30.1889,-90.1683,1010.9,1111122 
LUMCON,ioos:station:LUMCON:103:1,2010-11-04T16:00:00Z,30.1889,-90.1683,1010.7,1111122 
LUMCON,ioos:station:LUMCON:103:1,2010-11-04T17:00:00Z,30.1889,-90.1683,1010.4,1111122 
LUMCON,ioos:station:LUMCON:103:1,2010-11-04T18:00:00Z,30.1889,-90.1683,1009.9,1111122 
LUMCON,ioos:station:LUMCON:103:1,2010-11-04T19:00:00Z,30.1889,-90.1683,1009.5,1111122 
LUMCON,ioos:station:LUMCON:103:1,2010-11-04T20:00:00Z,30.1889,-90.1683,1009.6,1111122 
LUMCON,ioos:station:LUMCON:103:1,2010-11-04T21:00:00Z,30.1889,-90.1683,1009.7,1111122 
LUMCON,ioos:station:LUMCON:103:1,2010-11-04T22:00:00Z,30.1889,-90.1683,1010.2,1111122 
LUMCON,ioos:station:LUMCON:103:1,2010-11-04T23:00:00Z,30.1889,-90.1683,1011.2,1111122 
LUMCON,ioos:station:LUMCON:103:1,2010-11-05T00:00:00Z,30.1889,-90.1683,1012.5,1111122 
LUMCON,ioos:station:LUMCON:103:1,2010-11-05T01:00:00Z,30.1889,-90.1683,1013.5,1111122 
LUMCON,ioos:station:LUMCON:103:1,2010-11-05T02:00:00Z,30.1889,-90.1683,1014.6,1111122 
LUMCON,ioos:station:LUMCON:103:1,2010-11-05T03:00:00Z,30.1889,-90.1683,1015.3,1111122 
LUMCON,ioos:station:LUMCON:103:1,2010-11-05T04:00:00Z,30.1889,-90.1683,1015.8,1111122 
LUMCON,ioos:station:LUMCON:103:1,2010-11-05T05:00:00Z,30.1889,-90.1683,1015.8,1111122 
LUMCON,ioos:station:LUMCON:103:1,2010-11-05T06:00:00Z,30.1889,-90.1683,1015.7,1111122 
LUMCON,ioos:station:LUMCON:103:1,2010-11-05T07:00:00Z,30.1889,-90.1683,1015.7,1111122 
LUMCON,ioos:station:LUMCON:103:1,2010-11-05T08:00:00Z,30.1889,-90.1683,1015.6,1111122 
LUMCON,ioos:station:LUMCON:103:1,2010-11-05T09:00:00Z,30.1889,-90.1683,1015.5,1111122 
LUMCON,ioos:station:LUMCON:103:1,2010-11-05T10:00:00Z,30.1889,-90.1683,1015.9,1111122 
LUMCON,ioos:station:LUMCON:103:1,2010-11-05T11:00:00Z,30.1889,-90.1683,1016.4,1111122 
LUMCON,ioos:station:LUMCON:103:1,2010-11-05T12:00:00Z,30.1889,-90.1683,1017.0,1111122 
LUMCON,ioos:station:LUMCON:103:1,2010-11-05T13:00:00Z,30.1889,-90.1683,1018.0,1111122 
LUMCON,ioos:station:LUMCON:103:1,2010-11-05T14:00:00Z,30.1889,-90.1683,1018.9,1111122 
LUMCON,ioos:station:LUMCON:103:1,2010-11-05T15:00:00Z,30.1889,-90.1683,1019.2,1111122 
LUMCON,ioos:station:LUMCON:103:1,2010-11-05T16:00:00Z,30.1889,-90.1683,1019.5,1111122 
LUMCON,ioos:station:LUMCON:103:1,2010-11-05T17:00:00Z,30.1889,-90.1683,1019.4,1111122 
LUMCON,ioos:station:LUMCON:103:1,2010-11-05T18:00:00Z,30.1889,-90.1683,1018.8,1111122 
LUMCON,ioos:station:LUMCON:103:1,2010-11-05T19:00:00Z,30.1889,-90.1683,1018.1,1111122 
LUMCON,ioos:station:LUMCON:103:1,2010-11-05T20:00:00Z,30.1889,-90.1683,1017.7,1111122 
LUMCON,ioos:station:LUMCON:103:1,2010-11-05T21:00:00Z,30.1889,-90.1683,1017.9,1111122 
LUMCON,ioos:station:LUMCON:103:1,2010-11-05T22:00:00Z,30.1889,-90.1683,1018.2,1111122 
LUMCON,ioos:station:LUMCON:103:1,2010-11-05T23:00:00Z,30.1889,-90.1683,1019.0,1111122 
LUMCON,ioos:station:LUMCON:103:1,2010-11-06T00:00:00Z,30.1889,-90.1683,1020.0,1111122 
LUMCON,ioos:station:LUMCON:103:1,2010-11-06T01:00:00Z,30.1889,-90.1683,1021.0,1111122 
LUMCON,ioos:station:LUMCON:103:1,2010-11-06T02:00:00Z,30.1889,-90.1683,1022.0,1111122 
LUMCON,ioos:station:LUMCON:103:1,2010-11-06T03:00:00Z,30.1889,-90.1683,1023.0,1111122 
LUMCON,ioos:station:LUMCON:103:1,2010-11-06T04:00:00Z,30.1889,-90.1683,1023.5,1111122 
LUMCON,ioos:station:LUMCON:103:1,2010-11-06T05:00:00Z,30.1889,-90.1683,1023.7,1111122 
LUMCON,ioos:station:LUMCON:103:1,2010-11-06T06:00:00Z,30.1889,-90.1683,1023.9,1111122 
LUMCON,ioos:station:LUMCON:103:1,2010-11-06T07:00:00Z,30.1889,-90.1683,1024.1,1111122 
LUMCON,ioos:station:LUMCON:103:1,2010-11-06T08:00:00Z,30.1889,-90.1683,1024.3,1111122 
LUMCON,ioos:station:LUMCON:103:1,2010-11-06T09:00:00Z,30.1889,-90.1683,1024.3,1111122 
LUMCON,ioos:station:LUMCON:103:1,2010-11-06T10:00:00Z,30.1889,-90.1683,1024.8,1111122 
LUMCON,ioos:station:LUMCON:103:1,2010-11-06T11:00:00Z,30.1889,-90.1683,1025.4,1111122 
LUMCON,ioos:station:LUMCON:103:1,2010-11-06T12:00:00Z,30.1889,-90.1683,1026.2,1111122 
LUMCON,ioos:station:LUMCON:103:1,2010-11-06T13:00:00Z,30.1889,-90.1683,1027.0,1111122 
LUMCON,ioos:station:LUMCON:103:1,2010-11-06T14:00:00Z,30.1889,-90.1683,1028.0,1111122 
LUMCON,ioos:station:LUMCON:103:1,2010-11-06T15:00:00Z,30.1889,-90.1683,1028.4,1111122 
LUMCON,ioos:station:LUMCON:103:1,2010-11-06T16:00:00Z,30.1889,-90.1683,1028.5,1111122 
LUMCON,ioos:station:LUMCON:103:1,2010-11-06T17:00:00Z,30.1889,-90.1683,1028.2,1111122 
LUMCON,ioos:station:LUMCON:103:1,2010-11-06T18:00:00Z,30.1889,-90.1683,1027.3,1111122 
LUMCON,ioos:station:LUMCON:103:1,2010-11-06T19:00:00Z,30.1889,-90.1683,1026.5,1111122 
LUMCON,ioos:station:LUMCON:103:1,2010-11-06T20:00:00Z,30.1889,-90.1683,1026.2,1111122 
LUMCON,ioos:station:LUMCON:103:1,2010-11-06T21:00:00Z,30.1889,-90.1683,1026.1,1111122 
LUMCON,ioos:station:LUMCON:103:1,2010-11-06T22:00:00Z,30.1889,-90.1683,1026.1,1111122 
LUMCON,ioos:station:LUMCON:103:1,2010-11-06T23:00:00Z,30.1889,-90.1683,1026.4,1111122 
LUMCON,ioos:station:LUMCON:103:1,2010-11-07T00:00:00Z,30.1889,-90.1683,1026.7,1111122 
LUMCON,ioos:station:LUMCON:103:1,2010-11-07T01:00:00Z,30.1889,-90.1683,1027.1,1111122 
LUMCON,ioos:station:LUMCON:103:1,2010-11-07T02:00:00Z,30.1889,-90.1683,1027.6,1111122 
LUMCON,ioos:station:LUMCON:103:1,2010-11-07T03:00:00Z,30.1889,-90.1683,1028.1,1111122 
LUMCON,ioos:station:LUMCON:103:1,2010-11-07T04:00:00Z,30.1889,-90.1683,1028.7,1111122 
LUMCON,ioos:station:LUMCON:103:1,2010-11-07T05:00:00Z,30.1889,-90.1683,1028.7,1111122 
LUMCON,ioos:station:LUMCON:103:1,2010-11-07T06:00:00Z,30.1889,-90.1683,1028.6,1111122 
LUMCON,ioos:station:LUMCON:103:1,2010-11-07T08:00:00Z,30.1889,-90.1683,1028.5,1111122 
LUMCON,ioos:station:LUMCON:103:1,2010-11-07T09:00:00Z,30.1889,-90.1683,1028.4,11111222 
LUMCON,ioos:station:LUMCON:103:1,2010-11-07T10:00:00Z,30.1889,-90.1683,1028.5,1111122 
LUMCON,ioos:station:LUMCON:103:1,2010-11-07T11:00:00Z,30.1889,-90.1683,1028.6,1111122 
LUMCON,ioos:station:LUMCON:103:1,2010-11-07T12:00:00Z,30.1889,-90.1683,1028.9,1111122 
LUMCON,ioos:station:LUMCON:103:1,2010-11-07T13:00:00Z,30.1889,-90.1683,1029.3,11111222 
LUMCON,ioos:station:LUMCON:103:1,2010-11-07T14:00:00Z,30.1889,-90.1683,1029.6,1111122 
LUMCON,ioos:station:LUMCON:103:1,2010-11-07T15:00:00Z,30.1889,-90.1683,1029.9,1111122 
LUMCON,ioos:station:LUMCON:103:1,2010-11-07T16:00:00Z,30.1889,-90.1683,1030.0,11111222 
LUMCON,ioos:station:LUMCON:103:1,2010-11-07T17:00:00Z,30.1889,-90.1683,1029.5,1111122 
LUMCON,ioos:station:LUMCON:103:1,2010-11-07T18:00:00Z,30.1889,-90.1683,1028.4,1111122 
LUMCON,ioos:station:LUMCON:103:1,2010-11-07T19:00:00Z,30.1889,-90.1683,1027.1,1111122 
LUMCON,ioos:station:LUMCON:103:1,2010-11-07T20:00:00Z,30.1889,-90.1683,1026.4,1111122 
LUMCON,ioos:station:LUMCON:103:1,2010-11-07T21:00:00Z,30.1889,-90.1683,1025.9,1111122 
LUMCON,ioos:station:LUMCON:103:1,2010-11-07T22:00:00Z,30.1889,-90.1683,1025.7,1111122 
LUMCON,ioos:station:LUMCON:103:1,2010-11-07T23:00:00Z,30.1889,-90.1683,1025.5,1111122 
LUMCON,ioos:station:LUMCON:103:1,2010-11-08T00:00:00Z,30.1889,-90.1683,1025.5,1111122 
LUMCON,ioos:station:LUMCON:103:1,2010-11-08T01:00:00Z,30.1889,-90.1683,1025.4,1111122 
LUMCON,ioos:station:LUMCON:103:1,2010-11-08T02:00:00Z,30.1889,-90.1683,1025.4,1111122 
LUMCON,ioos:station:LUMCON:103:1,2010-11-08T03:00:00Z,30.1889,-90.1683,1025.3,1111122 
LUMCON,ioos:station:LUMCON:103:1,2010-11-08T05:00:00Z,30.1889,-90.1683,1024.5,1111122 
LUMCON,ioos:station:LUMCON:103:1,2010-11-08T07:00:00Z,30.1889,-90.1683,1023.3,1111122 
LUMCON,ioos:station:LUMCON:103:1,2010-11-08T08:00:00Z,30.1889,-90.1683,1022.9,1111122 
LUMCON,ioos:station:LUMCON:103:1,2010-11-08T10:00:00Z,30.1889,-90.1683,1022.5,1111122 
LUMCON,ioos:station:LUMCON:103:1,2010-11-08T12:00:00Z,30.1889,-90.1683,1022.5,1111122 
LUMCON,ioos:station:LUMCON:103:1,2010-11-08T13:00:00Z,30.1889,-90.1683,1022.8,1111122 
LUMCON,ioos:station:LUMCON:103:1,2010-11-08T14:00:00Z,30.1889,-90.1683,1023.3,1111122 
LUMCON,ioos:station:LUMCON:103:1,2010-11-08T15:00:00Z,30.1889,-90.1683,1023.5,1111122 
LUMCON,ioos:station:LUMCON:103:1,2010-11-08T16:00:00Z,30.1889,-90.1683,1023.3,1111122 
LUMCON,ioos:station:LUMCON:103:1,2010-11-08T17:00:00Z,30.1889,-90.1683,1022.7,1111122 
LUMCON,ioos:station:LUMCON:103:1,2010-11-08T22:00:00Z,30.1889,-90.1683,1019.1,1111122 
LUMCON,ioos:station:LUMCON:103:1,2010-11-08T23:00:00Z,30.1889,-90.1683,1018.8,1111122 
LUMCON,ioos:station:LUMCON:103:1,2010-11-09T00:00:00Z,30.1889,-90.1683,1018.7,1111122 
LUMCON,ioos:station:LUMCON:103:1,2010-11-09T01:00:00Z,30.1889,-90.1683,1018.8,1111122 
LUMCON,ioos:station:LUMCON:103:1,2010-11-09T02:00:00Z,30.1889,-90.1683,1018.7,1111122 
LUMCON,ioos:station:LUMCON:103:1,2010-11-09T03:00:00Z,30.1889,-90.1683,1018.6,1111122 
LUMCON,ioos:station:LUMCON:103:1,2010-11-09T05:00:00Z,30.1889,-90.1683,1018.5,1111122 
LUMCON,ioos:station:LUMCON:103:1,2010-11-09T06:00:00Z,30.1889,-90.1683,1018.3,1111122 
LUMCON,ioos:station:LUMCON:103:1,2010-11-09T08:00:00Z,30.1889,-90.1683,1017.6,1111122 
LUMCON,ioos:station:LUMCON:103:1,2010-11-09T09:00:00Z,30.1889,-90.1683,1017.3,1111122 
LUMCON,ioos:station:LUMCON:103:1,2010-11-09T10:00:00Z,30.1889,-90.1683,1017.2,1111122 
LUMCON,ioos:station:LUMCON:103:1,2010-11-09T11:00:00Z,30.1889,-90.1683,1017.3,1111122 
LUMCON,ioos:station:LUMCON:103:1,2010-11-09T16:00:00Z,30.1889,-90.1683,1019.1,1111122 
LUMCON,ioos:station:LUMCON:103:1,2010-11-09T17:00:00Z,30.1889,-90.1683,1018.5,1111122 
LUMCON,ioos:station:LUMCON:103:1,2010-11-09T18:00:00Z,30.1889,-90.1683,1017.8,1111122 
LUMCON,ioos:station:LUMCON:103:1,2010-11-09T19:00:00Z,30.1889,-90.1683,1016.9,1111122 
LUMCON,ioos:station:LUMCON:103:1,2010-11-09T20:00:00Z,30.1889,-90.1683,1016.3,1111122 
LUMCON,ioos:station:LUMCON:103:1,2010-11-09T21:00:00Z,30.1889,-90.1683,1015.9,1111122 
LUMCON,ioos:station:LUMCON:103:1,2010-11-09T22:00:00Z,30.1889,-90.1683,1015.6,1111122 
LUMCON,ioos:station:LUMCON:103:1,2010-11-09T23:00:00Z,30.1889,-90.1683,1015.6,1111122 
LUMCON,ioos:station:LUMCON:103:1,2010-11-10T00:00:00Z,30.1889,-90.1683,1015.7,1111122 
LUMCON,ioos:station:LUMCON:103:1,2010-11-10T01:00:00Z,30.1889,-90.1683,1015.9,1111122 
LUMCON,ioos:station:LUMCON:103:1,2010-11-10T02:00:00Z,30.1889,-90.1683,1016.2,1111122 
LUMCON,ioos:station:LUMCON:103:1,2010-11-10T03:00:00Z,30.1889,-90.1683,1016.5,1111122 
LUMCON,ioos:station:LUMCON:103:1,2010-11-10T04:00:00Z,30.1889,-90.1683,1016.5,1111122 
LUMCON,ioos:station:LUMCON:103:1,2010-11-10T05:00:00Z,30.1889,-90.1683,1016.5,1111122 
LUMCON,ioos:station:LUMCON:103:1,2010-11-10T06:00:00Z,30.1889,-90.1683,1016.3,1111122 
LUMCON,ioos:station:LUMCON:103:1,2010-11-10T07:00:00Z,30.1889,-90.1683,1016.0,1111122 
LUMCON,ioos:station:LUMCON:103:1,2010-11-10T08:00:00Z,30.1889,-90.1683,1016.1,1111122 
LUMCON,ioos:station:LUMCON:103:1,2010-11-10T09:00:00Z,30.1889,-90.1683,1016.1,1111122 
LUMCON,ioos:station:LUMCON:103:1,2010-11-10T10:00:00Z,30.1889,-90.1683,1016.2,1111122 
LUMCON,ioos:station:LUMCON:103:1,2010-11-10T11:00:00Z,30.1889,-90.1683,1016.7,1111122 
LUMCON,ioos:station:LUMCON:103:1,2010-11-10T12:00:00Z,30.1889,-90.1683,1017.0,1111122 
LUMCON,ioos:station:LUMCON:103:1,2010-11-10T13:00:00Z,30.1889,-90.1683,1017.6,1111122 
LUMCON,ioos:station:LUMCON:103:1,2010-11-10T14:00:00Z,30.1889,-90.1683,1018.4,1111122 
LUMCON,ioos:station:LUMCON:103:1,2010-11-10T15:00:00Z,30.1889,-90.1683,1018.8,1111122 
LUMCON,ioos:station:LUMCON:103:1,2010-11-10T16:00:00Z,30.1889,-90.1683,1018.9,1111122 
LUMCON,ioos:station:LUMCON:103:1,2010-11-10T17:00:00Z,30.1889,-90.1683,1018.7,1111122 
LUMCON,ioos:station:LUMCON:103:1,2010-11-10T18:00:00Z,30.1889,-90.1683,1018.4,1111122 
LUMCON,ioos:station:LUMCON:103:1,2010-11-10T19:00:00Z,30.1889,-90.1683,1018.0,1111122 
LUMCON,ioos:station:LUMCON:103:1,2010-11-10T20:00:00Z,30.1889,-90.1683,1017.8,1111122 
LUMCON,ioos:station:LUMCON:103:1,2010-11-10T21:00:00Z,30.1889,-90.1683,1017.6,1111122 
LUMCON,ioos:station:LUMCON:103:1,2010-11-10T22:00:00Z,30.1889,-90.1683,1017.6,1111122 
LUMCON,ioos:station:LUMCON:103:1,2010-11-10T23:00:00Z,30.1889,-90.1683,1018.0,1111122 
LUMCON,ioos:station:LUMCON:103:1,2010-11-11T17:00:00Z,30.1889,-90.1683,1023.7,1111122 
LUMCON,ioos:station:LUMCON:103:1,2010-11-11T18:00:00Z,30.1889,-90.1683,1023.2,1111122 
LUMCON,ioos:station:LUMCON:103:1,2010-11-11T19:00:00Z,30.1889,-90.1683,1022.6,1111122 
LUMCON,ioos:station:LUMCON:103:1,2010-11-11T20:00:00Z,30.1889,-90.1683,1022.4,1111122 
LUMCON,ioos:station:LUMCON:103:1,2010-11-11T21:00:00Z,30.1889,-90.1683,1022.3,1111122 
LUMCON,ioos:station:LUMCON:103:1,2010-11-11T22:00:00Z,30.1889,-90.1683,1022.4,1111122 
LUMCON,ioos:station:LUMCON:103:1,2010-11-11T23:00:00Z,30.1889,-90.1683,1022.6,1111122 
LUMCON,ioos:station:LUMCON:103:1,2010-11-12T00:00:00Z,30.1889,-90.1683,1022.8,1111122 
LUMCON,ioos:station:LUMCON:103:1,2010-11-12T01:00:00Z,30.1889,-90.1683,1023.3,1111122 
LUMCON,ioos:station:LUMCON:103:1,2010-11-12T02:00:00Z,30.1889,-90.1683,1023.6,1111122 
LUMCON,ioos:station:LUMCON:103:1,2010-11-12T03:00:00Z,30.1889,-90.1683,1023.6,1111122 
LUMCON,ioos:station:LUMCON:103:1,2010-11-12T04:00:00Z,30.1889,-90.1683,1023.6,1111122 
LUMCON,ioos:station:LUMCON:103:1,2010-11-12T05:00:00Z,30.1889,-90.1683,1023.6,1111122 
LUMCON,ioos:station:LUMCON:103:1,2010-11-12T06:00:00Z,30.1889,-90.1683,1023.1,1111122 
LUMCON,ioos:station:LUMCON:103:1,2010-11-12T07:00:00Z,30.1889,-90.1683,1022.9,1111122 
LUMCON,ioos:station:LUMCON:103:1,2010-11-12T08:00:00Z,30.1889,-90.1683,1022.8,1111122 
LUMCON,ioos:station:LUMCON:103:1,2010-11-12T09:00:00Z,30.1889,-90.1683,1022.6,1111122 
LUMCON,ioos:station:LUMCON:103:1,2010-11-12T10:00:00Z,30.1889,-90.1683,1022.5,1111122 
LUMCON,ioos:station:LUMCON:103:1,2010-11-12T11:00:00Z,30.1889,-90.1683,1022.5,1111122 
LUMCON,ioos:station:LUMCON:103:1,2010-11-12T12:00:00Z,30.1889,-90.1683,1022.7,1111122 
LUMCON,ioos:station:LUMCON:103:1,2010-11-12T13:00:00Z,30.1889,-90.1683,1022.9,1111122 
LUMCON,ioos:station:LUMCON:103:1,2010-11-12T14:00:00Z,30.1889,-90.1683,1023.3,1111122 
LUMCON,ioos:station:LUMCON:103:1,2010-11-12T15:00:00Z,30.1889,-90.1683,1023.8,1111122 
LUMCON,ioos:station:LUMCON:103:1,2010-11-12T16:00:00Z,30.1889,-90.1683,1023.9,1111122 
LUMCON,ioos:station:LUMCON:103:1,2010-11-12T17:00:00Z,30.1889,-90.1683,1023.8,1111122 
LUMCON,ioos:station:LUMCON:103:1,2010-11-12T18:00:00Z,30.1889,-90.1683,1023.3,1111122 
LUMCON,ioos:station:LUMCON:103:1,2010-11-12T19:00:00Z,30.1889,-90.1683,1022.4,1111122 
LUMCON,ioos:station:LUMCON:103:1,2010-11-12T20:00:00Z,30.1889,-90.1683,1021.9,1111122 
LUMCON,ioos:station:LUMCON:103:1,2010-11-12T21:00:00Z,30.1889,-90.1683,1021.5,1111122 
LUMCON,ioos:station:LUMCON:103:1,2010-11-12T22:00:00Z,30.1889,-90.1683,1021.4,1111122 
LUMCON,ioos:station:LUMCON:103:1,2010-11-12T23:00:00Z,30.1889,-90.1683,1021.4,1111122 
LUMCON,ioos:station:LUMCON:103:1,2010-11-13T00:00:00Z,30.1889,-90.1683,1021.7,1111122 
LUMCON,ioos:station:LUMCON:103:1,2010-11-13T01:00:00Z,30.1889,-90.1683,1021.9,1111122 
LUMCON,ioos:station:LUMCON:103:1,2010-11-13T02:00:00Z,30.1889,-90.1683,1022.1,1111122 
LUMCON,ioos:station:LUMCON:103:1,2010-11-13T03:00:00Z,30.1889,-90.1683,1022.3,1111122 
LUMCON,ioos:station:LUMCON:103:1,2010-11-13T04:00:00Z,30.1889,-90.1683,1022.2,1111122 
LUMCON,ioos:station:LUMCON:103:1,2010-11-13T05:00:00Z,30.1889,-90.1683,1022.0,1111122 
LUMCON,ioos:station:LUMCON:103:1,2010-11-13T06:00:00Z,30.1889,-90.1683,1021.6,1111122 
LUMCON,ioos:station:LUMCON:103:1,2010-11-13T07:00:00Z,30.1889,-90.1683,1021.3,1111122 
LUMCON,ioos:station:LUMCON:103:1,2010-11-13T08:00:00Z,30.1889,-90.1683,1020.9,1111122 
LUMCON,ioos:station:LUMCON:103:1,2010-11-13T09:00:00Z,30.1889,-90.1683,1020.7,11111222 
LUMCON,ioos:station:LUMCON:103:1,2010-11-13T10:00:00Z,30.1889,-90.1683,1020.5,1111122 
LUMCON,ioos:station:LUMCON:103:1,2010-11-13T12:00:00Z,30.1889,-90.1683,1020.5,1111122 
LUMCON,ioos:station:LUMCON:103:1,2010-11-13T13:00:00Z,30.1889,-90.1683,1020.6,11111222 
LUMCON,ioos:station:LUMCON:103:1,2010-11-13T14:00:00Z,30.1889,-90.1683,1021.1,1111122 
LUMCON,ioos:station:LUMCON:103:1,2010-11-13T15:00:00Z,30.1889,-90.1683,1021.4,1111122 
LUMCON,ioos:station:LUMCON:103:1,2010-11-13T16:00:00Z,30.1889,-90.1683,1021.4,1111122 
LUMCON,ioos:station:LUMCON:103:1,2010-11-13T17:00:00Z,30.1889,-90.1683,1021.1,1111122 
LUMCON,ioos:station:LUMCON:103:1,2010-11-13T18:00:00Z,30.1889,-90.1683,1020.1,1111122 
LUMCON,ioos:station:LUMCON:103:1,2010-11-13T19:00:00Z,30.1889,-90.1683,1018.8,1111122 
LUMCON,ioos:station:LUMCON:103:1,2010-11-13T20:00:00Z,30.1889,-90.1683,1018.2,1111122 
LUMCON,ioos:station:LUMCON:103:1,2010-11-13T21:00:00Z,30.1889,-90.1683,1017.7,1111122 
LUMCON,ioos:station:LUMCON:103:1,2010-11-15T15:00:00Z,30.1889,-90.1683,1008.8,11111222 
LUMCON,ioos:station:LUMCON:103:1,2010-11-15T16:00:00Z,30.1889,-90.1683,1009.4,1111122 
LUMCON,ioos:station:LUMCON:103:1,2010-11-15T17:00:00Z,30.1889,-90.1683,1008.2,1111122 
LUMCON,ioos:station:LUMCON:103:1,2010-11-15T18:00:00Z,30.1889,-90.1683,1007.2,1111122 
LUMCON,ioos:station:LUMCON:103:1,2010-11-15T19:00:00Z,30.1889,-90.1683,1006.3,1111122 
LUMCON,ioos:station:LUMCON:103:1,2010-11-15T20:00:00Z,30.1889,-90.1683,1005.6,1111122 
LUMCON,ioos:station:LUMCON:103:1,2010-11-15T21:00:00Z,30.1889,-90.1683,1005.8,1111122 
LUMCON,ioos:station:LUMCON:103:1,2010-11-15T22:00:00Z,30.1889,-90.1683,1005.1,1111122 
LUMCON,ioos:station:LUMCON:103:1,2010-11-15T23:00:00Z,30.1889,-90.1683,1004.6,1111122 
LUMCON,ioos:station:LUMCON:103:1,2010-11-16T00:00:00Z,30.1889,-90.1683,1004.5,1111122 
LUMCON,ioos:station:LUMCON:103:1,2010-11-16T01:00:00Z,30.1889,-90.1683,1005.0,1111122 
LUMCON,ioos:station:LUMCON:103:1,2010-11-16T02:00:00Z,30.1889,-90.1683,1005.3,1111122 
LUMCON,ioos:station:LUMCON:103:1,2010-11-16T03:00:00Z,30.1889,-90.1683,1004.8,1111122 
LUMCON,ioos:station:LUMCON:103:1,2010-11-16T04:00:00Z,30.1889,-90.1683,1004.9,1111122 
LUMCON,ioos:station:LUMCON:103:1,2010-11-16T05:00:00Z,30.1889,-90.1683,1004.2,1111122 
LUMCON,ioos:station:LUMCON:103:1,2010-11-16T06:00:00Z,30.1889,-90.1683,1003.9,1111122 
LUMCON,ioos:station:LUMCON:103:1,2010-11-16T07:00:00Z,30.1889,-90.1683,1003.7,1111122 
LUMCON,ioos:station:LUMCON:103:1,2010-11-16T20:00:00Z,30.1889,-90.1683,1008.6,1111122 
LUMCON,ioos:station:LUMCON:103:1,2010-11-16T21:00:00Z,30.1889,-90.1683,1009.1,1111122 
LUMCON,ioos:station:LUMCON:103:1,2010-11-16T23:00:00Z,30.1889,-90.1683,1010.5,1111122 
LUMCON,ioos:station:LUMCON:103:1,2010-11-17T07:00:00Z,30.1889,-90.1683,1015.7,1111122 
LUMCON,ioos:station:LUMCON:103:1,2010-11-17T09:00:00Z,30.1889,-90.1683,1016.5,1111122 
LUMCON,ioos:station:LUMCON:103:1,2010-11-18T08:00:00Z,30.1889,-90.1683,1019.5,1111122 
LUMCON,ioos:station:LUMCON:103:1,2010-11-18T09:00:00Z,30.1889,-90.1683,1019.6,1111122 
LUMCON,ioos:station:LUMCON:103:1,2010-11-19T02:00:00Z,30.1889,-90.1683,1023.4,1111122 
LUMCON,ioos:station:LUMCON:103:1,2010-11-22T18:00:00Z,30.1889,-90.1683,1020.2,11111222 
LUMCON,ioos:station:LUMCON:103:1,2010-11-22T20:00:00Z,30.1889,-90.1683,1018.7,11111222 
LUMCON,ioos:station:LUMCON:103:1,2010-11-22T22:00:00Z,30.1889,-90.1683,1018.2,11111222 
LUMCON,ioos:station:LUMCON:103:1,2010-11-23T04:00:00Z,30.1889,-90.1683,1019.5,11111222 
LUMCON,ioos:station:LUMCON:103:1,2010-11-23T12:00:00Z,30.1889,-90.1683,1018.8,11111222 
LUMCON,ioos:station:LUMCON:103:1,2010-11-23T13:00:00Z,30.1889,-90.1683,1019.2,11111222 
LUMCON,ioos:station:LUMCON:103:1,2010-11-23T14:00:00Z,30.1889,-90.1683,1019.5,11111222 
LUMCON,ioos:station:LUMCON:103:1,2010-11-24T15:00:00Z,30.1889,-90.1683,1018.1,1111122 
LUMCON,ioos:station:LUMCON:103:1,2010-11-24T16:00:00Z,30.1889,-90.1683,1018.2,1111122 
LUMCON,ioos:station:LUMCON:103:1,2010-11-24T17:00:00Z,30.1889,-90.1683,1017.7,1111122 
LUMCON,ioos:station:LUMCON:103:1,2010-11-24T18:00:00Z,30.1889,-90.1683,1016.7,1111122 
LUMCON,ioos:station:LUMCON:103:1,2010-11-24T19:00:00Z,30.1889,-90.1683,1015.8,1111122 
LUMCON,ioos:station:LUMCON:103:1,2010-11-24T20:00:00Z,30.1889,-90.1683,1014.8,1111122 
LUMCON,ioos:station:LUMCON:103:1,2010-11-24T21:00:00Z,30.1889,-90.1683,1014.3,1111122 
LUMCON,ioos:station:LUMCON:103:1,2010-11-24T22:00:00Z,30.1889,-90.1683,1014.2,1111122 
LUMCON,ioos:station:LUMCON:103:1,2010-11-24T23:00:00Z,30.1889,-90.1683,1014.1,1111122 
LUMCON,ioos:station:LUMCON:103:1,2010-11-25T00:00:00Z,30.1889,-90.1683,1014.1,1111122 
LUMCON,ioos:station:LUMCON:103:1,2010-11-25T02:00:00Z,30.1889,-90.1683,1014.3,1111122 
LUMCON,ioos:station:LUMCON:103:1,2010-11-25T13:00:00Z,30.1889,-90.1683,1012.8,1111122 
LUMCON,ioos:station:LUMCON:103:1,2010-11-27T05:00:00Z,30.1889,-90.1683,1020.7,11111222 
LUMCON,ioos:station:LUMCON:103:1,2010-11-27T06:00:00Z,30.1889,-90.1683,1021.1,11111222 
LUMCON,ioos:station:LUMCON:103:1,2010-11-27T08:00:00Z,30.1889,-90.1683,1021.3,11111222 
LUMCON,ioos:station:LUMCON:103:1,2010-11-27T14:00:00Z,30.1889,-90.1683,1023.8,11111222 
LUMCON,ioos:station:LUMCON:103:1,2010-11-27T15:00:00Z,30.1889,-90.1683,1023.9,11111222 
LUMCON,ioos:station:LUMCON:103:1,2010-11-27T18:00:00Z,30.1889,-90.1683,1022.8,1111122 
LUMCON,ioos:station:LUMCON:103:1,2010-11-28T13:00:00Z,30.1889,-90.1683,1020.2,1111122 
LUMCON,ioos:station:LUMCON:103:1,2010-11-28T15:00:00Z,30.1889,-90.1683,1020.5,1111122 
LUMCON,ioos:station:LUMCON:103:1,2010-11-28T20:00:00Z,30.1889,-90.1683,1017.3,1111122 
LUMCON,ioos:station:LUMCON:103:1,2010-11-29T03:00:00Z,30.1889,-90.1683,1016.2,1111122 
LUMCON,ioos:station:LUMCON:103:1,2010-11-29T09:00:00Z,30.1889,-90.1683,1013.8,1111122 
LUMCON,ioos:station:LUMCON:103:1,2010-11-29T11:00:00Z,30.1889,-90.1683,1013.1,1111122 
LUMCON,ioos:station:LUMCON:103:1,2010-11-29T18:00:00Z,30.1889,-90.1683,1012.0,1111122 
LUMCON,ioos:station:LUMCON:103:1,2010-11-29T19:00:00Z,30.1889,-90.1683,1011.2,1111122 
LUMCON,ioos:station:LUMCON:103:1,2010-11-29T20:00:00Z,30.1889,-90.1683,1010.7,1111122 
LUMCON,ioos:station:LUMCON:103:1,2010-11-29T21:00:00Z,30.1889,-90.1683,1010.5,1111122 
LUMCON,ioos:station:LUMCON:103:1,2010-11-29T22:00:00Z,30.1889,-90.1683,1010.5,1111122 
LUMCON,ioos:station:LUMCON:103:1,2010-11-30T00:00:00Z,30.1889,-90.1683,1011.2,1111122 
LUMCON,ioos:station:LUMCON:103:1,2010-11-30T02:00:00Z,30.1889,-90.1683,1011.7,1111122 
LUMCON,ioos:station:LUMCON:103:1,2010-11-30T11:00:00Z,30.1889,-90.1683,1011.1,1111122 
LUMCON,ioos:station:LUMCON:103:1,2010-11-30T12:00:00Z,30.1889,-90.1683,1011.3,1111122 